Meteopurmerend
purmerend
Purmerend - Baaienwijk



My webcam  My webcam


Onweer radar Meer informatie blitzortung!


Regen radar Meer informatie rain snow radar


Bezoek onze andere website:

CandyAppleRed WebdesignWebdesign Purmerend Candy Apple Red

MeteopurmerendBlog

Template documentation
and downloads



Het weer levert geen direct gevaar op.    Er zijn geen waarschuwingen afgegeven.

15 daagse weersverwachting Reggio Calabria (IT)

  • Overzicht
  • Per uur
  • 15 dagen
  • Extra
  • Vergelijk
  • Kaarten
  • Dagkaart
  • Meer »
  • Info
  • Statistieken
  • Directe link
    Temp 6h Neerslag Wind  
 06:48     16:40    Daglengte: 9:52 Vandaag
07:00
15°
 
5
13:00
18°
 
8
19:00
16°
 
9
 06:49     16:40    Daglengte: 9:51 Morgen
01:00
17°
 
10
07:00
16°
12.9 mm
9
13:00
15°
52.8 mm
5
19:00
13°
74.2 mm
3
 06:50     16:39    Daglengte: 9:49 Maandag 25 Nov
01:00
13°
84.2 mm
3
07:00
13°
27.5 mm
3
13:00
14°
138.2 mm
3
19:00
13°
138.2 mm
3
 06:51     16:39    Daglengte: 9:48 Dinsdag 26 Nov
01:00
14°
32.1 mm
5
Locatie info
Region: Calabria
Latitude: 38.1105°N
Longitude: 15.6613°E
110 masl
Temp/Neerslag /Baro Onweer/Dauwpunt
    Temp Baro 1h Neerslag Dauwpunt Wind UV Bewolking  
 06:48     16:40    Daglengte: 9:52 Vandaag
04:00
15°
1013.9 hPa   12.4°
5
Windvlaag: 2.4 m/s
19%
05:00
15°
1013.9 hPa   12.5°
5
Windvlaag: 1.8 m/s
11%
06:00
15°
1013.9 hPa   12.7°
5
Windvlaag: 1.9 m/s
7%
07:00
15°
1013.9 hPa   12.8°
5
Windvlaag: 2.5 m/s
24%
08:00
16°
1014.0 hPa   12.8°
5
Windvlaag: 2.5 m/s
29%
09:00
17°
1014.0 hPa   13.1°
5
Windvlaag: 3.8 m/s
16%
10:00
17°
1014.0 hPa   13.1°
6
Windvlaag: 4.9 m/s
10%
11:00
18°
1013.5 hPa   13.3°
7
Windvlaag: 5.7 m/s
5%
12:00
18°
1012.5 hPa   13.6°
7
Windvlaag: 6.3 m/s
15%
13:00
18°
1011.5 hPa   13.3°
8
Windvlaag: 6.7 m/s
40%
14:00
18°
1010.9 hPa   13.2°
9
Windvlaag: 7 m/s
13%
15:00
18°
1010.5 hPa   13.6°
9
Windvlaag: 6.9 m/s
21%
16:00
17°
1010.3 hPa
12%
14.3°
8
Windvlaag: 6.6 m/s
50%
17:00
16°
1010.1 hPa
13%
14.5°
8
Windvlaag: 6.3 m/s
37%
18:00
16°
1010.3 hPa
22%
14.8°
8
Windvlaag: 6.4 m/s
62%
19:00
16°
1010.2 hPa
27%
14.7°
9
Windvlaag: 6.9 m/s
75%
20:00
16°
1010.1 hPa
21%
14.8°
9
Windvlaag: 6.5 m/s
86%
21:00
16°
1009.9 hPa
23%
14.8°
8
Windvlaag: 7 m/s
90%
22:00
16°
1009.7 hPa
31%
14.7°
8
Windvlaag: 7.1 m/s
90%
23:00
17°
1008.7 hPa
40%
14.7°
8
Windvlaag: 7.4 m/s
90%
 06:49     16:40    Daglengte: 9:51 Morgen
00:00
17°
1008.3 hPa
76%
14.5°
9
Windvlaag: 7.5 m/s
89%
01:00
17°
1007.5 hPa
78%
14.6°
10
Windvlaag: 7.8 m/s
87%
02:00
16°
1006.9 hPa
78%
14.6°
10
Windvlaag: 7.6 m/s
90%
03:00
16°
1006.0 hPa 1.4 mm
78%
14.5°
10
Windvlaag: 8.3 m/s
90%
04:00
16°
1005.0 hPa 2.4 mm
78%
14.4°
11
Windvlaag: 9.2 m/s
90%
05:00
16°
1004.4 hPa 2.2 mm
82%
14.6°
11
Windvlaag: 8.3 m/s
89%
06:00
16°
1003.9 hPa 2.4 mm
82%
14.8°
10
Windvlaag: 7.6 m/s
83%
07:00
16°
1003.9 hPa 4.5 mm
82%
14.8°
9
Windvlaag: 8.2 m/s
89%
08:00
16°
1003.1 hPa 4.6 mm
82%
14.9°
9
Windvlaag: 8.4 m/s
90%
09:00
16°
1002.8 hPa 5.7 mm
82%
15.2°
10
Windvlaag: 9 m/s
87%
10:00
16°
1002.2 hPa 6.8 mm
82%
15.3°
7
Windvlaag: 9.1 m/s
83%
11:00
15°
1002.0 hPa 11.0 mm
82%
13.8°
7
Windvlaag: 6.4 m/s
90%
12:00
15°
1001.0 hPa 15.2 mm
82%
12.7°
5
Windvlaag: 4.5 m/s
91%
13:00
15°
1000.5 hPa 9.7 mm
82%
13.5°
5
Windvlaag: 4.6 m/s
90%
14:00
14°
1000.4 hPa 13.0 mm
82%
13.2°
4
Windvlaag: 2.9 m/s
81%
15:00
14°
999.7 hPa 12.2 mm
40%
12.5°
2
Windvlaag: 1.6 m/s
78%
16:00
13°
1000.1 hPa 12.8 mm
26%
12.0°
3
Windvlaag: -3 m/s
79%
17:00
13°
1000.2 hPa 12.2 mm
23%
11.8°
4
Windvlaag: -3.5 m/s
78%
18:00
13°
1000.7 hPa 12.2 mm
21%
11.6°
4
Windvlaag: -3.1 m/s
75%
19:00
13°
1000.9 hPa 11.8 mm
24%
11.6°
3
Windvlaag: -2.6 m/s
79%
20:00
13°
1001.3 hPa 12.3 mm
20%
11.4°
3
Windvlaag: -2.4 m/s
87%
21:00
13°
1001.3 hPa 13.4 mm
15%
11.2°
2
Windvlaag: -2.4 m/s
87%
22:00
13°
1001.5 hPa 14.4 mm
25%
11.3°
3
Windvlaag: -2.1 m/s
86%
23:00
13°
1001.7 hPa 15.0 mm
23%
11.1°
3
Windvlaag: -2 m/s
85%
 06:50     16:39    Daglengte: 9:49 Maandag 25 Nov
00:00
13°
1001.6 hPa 13.8 mm
22%
11.3°
3
Windvlaag: -2.2 m/s
86% warningclass
01:00
13°
1001.5 hPa 15.3 mm
22%
11.2°
3
Windvlaag: -2.1 m/s
89%
02:00
13°
1001.5 hPa 14.1 mm
23%
10.9°
3
Windvlaag: -2.2 m/s
90%
03:00
13°
1001.4 hPa 13.3 mm
22%
10.8°
3
Windvlaag: -1.5 m/s
91%
04:00
13°
1001.2 hPa
22%
11.0°
3
Windvlaag: -1.8 m/s
86%
05:00
13°
1001.2 hPa
26%
10.8°
3
Windvlaag: -2 m/s
78%
06:00
13°
1001.5 hPa
27%
10.9°
3
Windvlaag: -2.2 m/s
85%
07:00
13°
1001.8 hPa
25%
11.0°
3
Windvlaag: -1.8 m/s
90%
08:00
14°
1002.2 hPa 23.5 mm
26%
11.5°
3
Windvlaag: 1.9 m/s
84%
09:00
14°
1002.6 hPa 23.9 mm
29%
11.9°
3
Windvlaag: 1.7 m/s
72%
10:00
14°
1002.8 hPa 25.1 mm
32%
12.2°
3
Windvlaag: 1.5 m/s
89%
11:00
14°
1002.4 hPa 25.4 mm
35%
11.8°
3
Windvlaag: 1.4 m/s
91%
12:00
14°
1002.2 hPa 25.1 mm
77%
11.9°
3
Windvlaag: 1.4 m/s
95%
13:00
14°
1001.8 hPa 15.2 mm
86%
11.8°
3
Windvlaag: 1.7 m/s
94%
14:00
14°
1001.8 hPa 15.6 mm
91%
11.8°
4
Windvlaag: 1.8 m/s
95%
15:00
13°
1001.3 hPa 15.7 mm
81%
11.9°
5
Windvlaag: 2.1 m/s
90%
16:00
13°
1001.5 hPa 25.4 mm
78%
11.4°
4
Windvlaag: 2.1 m/s
84%
17:00
13°
1002.0 hPa 26.4 mm
75%
12.1°
4
Windvlaag: 1.7 m/s
95%
18:00
13°
1002.1 hPa 26.8 mm
76%
11.7°
3
Windvlaag: 2.3 m/s
84%
19:00
13°
1002.6 hPa 28.2 mm
78%
11.5°
3
Windvlaag: 2.8 m/s
62%
20:00
13°
1003.0 hPa
78%
11.8°
3
Windvlaag: 7.9 m/s
62%
21:00
14°
1003.3 hPa
76%
12.0°
3
Windvlaag: 14.2 m/s
50%
22:00
14°
1003.8 hPa
75%
12.5°
4
Windvlaag: 13.9 m/s
57%
23:00
14°
1004.3 hPa 32.1 mm
78%
12.9°
4
Windvlaag: 11.6 m/s
52%
 06:51     16:39    Daglengte: 9:48 Dinsdag 26 Nov
00:00
14°
1004.7 hPa
78%
13.3°
5
Windvlaag: 12.8 m/s
43%
01:00
14°
1005.1 hPa
38%
13.7°
5
Windvlaag: 1.9 m/s
41%
02:00
15°
1005.2 hPa 98.0 mm
100%
13.7°
5
Windvlaag: 11.5 m/s
42%
03:00
15°
1005.7 hPa 98.2 mm
100%
13.7°
5
Windvlaag: 11.7 m/s
42%
Temp/Neerslag /Baro Onweer/Dauwpunt
    Temp Baro Neerslag Dauwpunt Wind Bewolking  
 06:48     16:40    Daglengte: 9:52 Vandaag
04:00
15°
1013.9 hPa   12.4°
5
19%
07:00
15°
1013.9 hPa   12.8°
5
24%
10:00
17°
1014.0 hPa   13.1°
6
10%
13:00
18°
1011.5 hPa   13.3°
8
40%
16:00
17°
1010.3 hPa   14.3°
8
50%
19:00
16°
1010.2 hPa   14.7°
9
75%
22:00
16°
1009.7 hPa   14.7°
8
90%
 06:49     16:40    Daglengte: 9:51 Morgen
01:00
17°
1007.5 hPa   14.6°
10
87%
04:00
16°
1005.0 hPa 3.8 mm 14.4°
11
90%
07:00
16°
1003.9 hPa 9.1 mm 14.8°
9
89%
10:00
16°
1002.2 hPa 17.0 mm 15.3°
7
83%
13:00
15°
1000.5 hPa 35.9 mm 13.5°
5
90%
16:00
13°
1000.1 hPa 38.0 mm 12.0°
3
79%
19:00
13°
1000.9 hPa 36.1 mm 11.6°
3
79%
22:00
13°
1001.5 hPa 40.1 mm 11.3°
3
86%
 06:50     16:39    Daglengte: 9:49 Maandag 25 Nov
01:00
13°
1001.5 hPa 44.2 mm 11.2°
3
89%
04:00
13°
1001.2 hPa 27.5 mm 11.0°
3
86%
07:00
13°
1001.8 hPa   11.0°
3
90%
10:00
14°
1002.8 hPa 72.5 mm 12.2°
3
89%
13:00
14°
1001.8 hPa 65.7 mm 11.8°
3
94%
16:00
13°
1001.5 hPa 56.7 mm 11.4°
4
84%
19:00
13°
1002.6 hPa 81.5 mm 11.5°
3
62%
22:00
14°
1003.8 hPa   12.5°
4
57%
 06:51     16:39    Daglengte: 9:48 Dinsdag 26 Nov
01:00
14°
1005.1 hPa 32.1 mm 13.7°
5
41%
04:00
15°
1006.1 hPa 294.6 mm 13.7°
5
40%
07:00
15°
1007.6 hPa 296.9 mm 13.5°
4
36%
10:00
16°
1009.3 hPa 62.9 mm 13.1°
4
23%
13:00
17°
1009.8 hPa 63.2 mm 12.9°
4
20%
16:00
16°
1011.0 hPa 63.8 mm 13.8°
4
44%
19:00
15°
1012.4 hPa 64.4 mm 14.6°
4
69%
22:00
15°
1012.9 hPa 64.5 mm 14.4°
4
72%
 06:52     16:39    Daglengte: 9:47 Woensdag 27 Nov
01:00
15°
1013.3 hPa 64.7 mm 14.2°
4
76%
04:00
15°
1013.6 hPa 65.1 mm 13.8°
4
50%
07:00
15°
1013.9 hPa 65.3 mm 13.4°
4
25%
10:00
16°
1013.8 hPa 65.3 mm 12.1°
3
13%
13:00
18°
1013.5 hPa 65.3 mm 10.3°
1
0%
16:00
16°
1013.4 hPa 65.3 mm 11.6°
1
0%
19:00
15°
1013.4 hPa 65.3 mm 12.1°
2
1%
22:00
15°
1013.4 hPa 65.3 mm 11.5°
2
0%
 06:53     16:38    Daglengte: 9:45 Donderdag 28 Nov
01:00
15°
1013.4 hPa 65.3 mm 10.9°
2
0%
04:00
15°
1013.2 hPa 65.3 mm 10.8°
2
16%
07:00
16°
1013.1 hPa 65.3 mm 10.7°
2
32%
10:00
17°
1013.0 hPa 65.3 mm 11.5°
2
37%
13:00
19°
1012.8 hPa 65.3 mm 12.1°
1
42%
16:00
18°
1013.4 hPa 65.3 mm 14.0°
3
59%
19:00
17°
1014.0 hPa 65.3 mm 15.3°
4
76%
22:00
17°
1014.2 hPa 65.3 mm 14.8°
4
83%
 06:54     16:38    Daglengte: 9:44 Vrijdag 29 Nov
01:00
16°
1014.4 hPa 65.3 mm 14.2°
4
91%
04:00
16°
1014.9 hPa 65.3 mm 13.6°
4
56%
07:00
15°
1015.5 hPa 65.6 mm 13.0°
4
21%
10:00
15°
1016.2 hPa 65.8 mm 12.6°
4
29%
13:00
16°
1016.7 hPa 65.8 mm 12.3°
5
36%
16:00
16°
1017.7 hPa 65.8 mm 12.5°
4
40%
19:00
15°
1018.6 hPa 65.8 mm 12.5°
4
44%
22:00
15°
1019.3 hPa 65.8 mm 12.3°
4
54%
 06:55     16:38    Daglengte: 9:43 Zaterdag 30 Nov
01:00
15°
1019.9 hPa 131.7 mm 12.1°
4
64%
07:00
15°
1020.2 hPa 131.7 mm 13.6°
4
71%
13:00
17°
1019.9 hPa 131.7 mm 10.6°
3
13%
19:00
15°
1019.6 hPa 131.7 mm 9.3°
3
84%
 06:56     16:37    Daglengte: 9:41 Zondag 01 Dec
01:00
16°
1018.2 hPa 131.7 mm 9.8°
4
91%
07:00
15°
1017.9 hPa 131.7 mm 13.2°
8
92%
13:00
17°
1016.6 hPa 131.7 mm 15.2°
9
83%
19:00
17°
1016.5 hPa 132.1 mm 15.8°
8
16%
 06:57     16:37    Daglengte: 9:40 Maandag 02 Dec
01:00
17°
1016.6 hPa 132.5 mm 16.3°
8
89%
07:00
16°
1017.1 hPa 132.5 mm 16.0°
6
47%
13:00
18°
1017.6 hPa 132.5 mm 15.7°
6
38%
19:00
14°
1009.8 hPa 133.0 mm 11.2°
4
1%
 06:58     16:37    Daglengte: 9:39 Dinsdag 03 Dec
01:00
14°
1015.8 hPa 0.8 mm 10.9°
0
46%
07:00
14°
1015.8 hPa 0.4 mm 10.6°
1
43%
13:00
16°
1015.5 hPa 2.0 mm 10.9°
1
47%
19:00
14°
1015.9 hPa 1.4 mm 10.6°
1
42%
 06:59     16:37    Daglengte: 9:38 Woensdag 04 Dec
01:00
13°
1015.8 hPa 1.2 mm 10.1°
1
37%
07:00
13°
1015.2 hPa 0.4 mm 9.4°
2
45%
13:00
16°
1014.7 hPa 1.0 mm 10.0°
2
40%
19:00
14°
1015.1 hPa 0.8 mm 9.7°
2
36%
 07:00     16:37    Daglengte: 9:37 Donderdag 05 Dec
01:00
13°
1015.2 hPa 0.3 mm 9.3°
1
26%
07:00
13°
1015.1 hPa 0.6 mm 9.2°
1
29%
13:00
16°
1014.7 hPa 0.5 mm 9.3°
1
37%
19:00
14°
1015.0 hPa 0.8 mm 9.1°
1
41%
 07:00     16:37    Daglengte: 9:37 Vrijdag 06 Dec
01:00
13°
1015.0 hPa 1.1 mm 9.4°
1
45%
07:00
13°
1015.0 hPa 0.9 mm 9.5°
1
41%
13:00
16°
1014.5 hPa 0.4 mm 9.4°
1
38%
19:00
14°
1015.1 hPa 0.3 mm 9.4°
1
37%
 07:01     16:37    Daglengte: 9:36 Zaterdag 07 Dec
01:00
13°
1015.5 hPa 0.5 mm 9.3°
2
32%
07:00
13°
1015.5 hPa 0.4 mm 9.1°
2
30%
13:00
16°
1015.3 hPa 0.7 mm 9.4°
3
33%
19:00
14°
1016.3 hPa 0.2 mm 9.3°
2
36%
 07:02     16:37    Daglengte: 9:35 Zondag 08 Dec
01:00
13°
1016.5 hPa 0.2 mm 9.2°
2
26%
  CAPE Lifted Index Hail Supercell Tornado SRH 3km CL BTM PRES CL TOP PRES Swiss DWD icon SMHI TS
 06:48     16:40    Daglengte: 9:52 Vandaag
04:00 0 J/kg 2.2 K 0 % 0 % 0 % 0 m²/s² 0 0 2.92 2
05:00 0 J/kg 1.8 K 0 % 0 % 0 % 0 m²/s² 0 0 2.7 2
06:00 0 J/kg 1.7 K 0 % 0 % 0 % 0 m²/s² 0 0 2.36 1
07:00 2 J/kg 2.3 K 0 % 0 % 0 % 0 m²/s² 0 0 3.26 1
08:00 1 J/kg 2.8 K 0 % 0 % 0 % 0 m²/s² 0 0 3.94 1
09:00 0 J/kg 2.3 K 0 % 0 % 0 % 0 m²/s² 0 0 3.41 1
10:00 0 J/kg 2.4 K 0 % 0 % 0 % 0 m²/s² 0 0 3.81 1
11:00 8 J/kg 2.2 K 0 % 0 % 0 % 0 m²/s² 0 0 4.15 0
12:00 8 J/kg 1.2 K 0 % 0 % 0 % 0 m²/s² 0 0 3.69 1
13:00 19 J/kg 0.9 K 0 % 0 % 0 % 0 m²/s² 0 0 3.78 1
14:00 0 J/kg 1.6 K 0 % 0 % 0 % 0 m²/s² 0 0 4.81 1
15:00 0 J/kg 1.5 K 0 % 0 % 0 % 0 m²/s² 0 0 4.89 0
16:00 0 J/kg 1.4 K 0 % 0 % 0 % 0 m²/s² 0 0 5.06 3
17:00 0 J/kg 1.4 K 0 % 0 % 0 % 0 m²/s² 0 0 5.57 3
18:00 11 J/kg 0.6 K 0 % 0 % 0 % 0 m²/s² 0 0 5.25 3
19:00 0 J/kg 0.4 K 0 % 0 % 0 % 0 m²/s² 0 0 5.29 3
20:00 27 J/kg -0.4 K 0 % 0 % 0 % 0 m²/s² 0 0 3.71 3
21:00 61 J/kg 0.1 K 0 % 0 % 0 % 0 m²/s² 0 0 2.83 3
22:00 104 J/kg 0.1 K 0 % 0 % 0 % 0 m²/s² 0 0 2.26 3
23:00 60 J/kg 0.2 K 0 % 0 % 0 % 0 m²/s² 0 0 2.45 3
 06:49     16:40    Daglengte: 9:51 Morgen
00:00 199 J/kg 0.1 K 0 % 0 % 0 % 0 m²/s² 0 0 1.63 3
01:00 225 J/kg 0.5 K 0 % 0 % 0 % 0 m²/s² 0 0 1.61 3
02:00 266 J/kg 1.3 K 0 % 0 % 0 % 0 m²/s² 0 0 2.44 80
03:00 199 J/kg 1.4 K 0 % 0 % 0 % 0 m²/s² 0 0 2.21 61
04:00 146 J/kg 1.4 K 0 % 0 % 0 % 0 m²/s² 0 0 2.12 63
05:00 212 J/kg 0.4 K 0 % 0 % 0 % 0 m²/s² 0 0 1.18 63
06:00 342 J/kg -0.1 K 0 % 0 % 0 % 0 m²/s² 0 0 0.29 61
07:00 737 J/kg -2.2 K 0 % 0 % 0 % 0 m²/s² 0 0 -1.87 61
08:00 624 J/kg -1.7 K 0 % 0 % 0 % 0 m²/s² 0 0 -1.04 61
09:00 688 J/kg -2.0 K 0 % 0 % 0 % 0 m²/s² 0 0 -1.7 61
10:00 95 J/kg 0.8 K 0 % 0 % 0 % 0 m²/s² 0 0 1.94 61
11:00 1 J/kg 3.8 K 0 % 0 % 0 % 0 m²/s² 0 0 4.28 61
12:00 1 J/kg 4.2 K 0 % 0 % 0 % 0 m²/s² 0 0 4.53 61
13:00 0 J/kg 2.9 K 0 % 0 % 0 % 0 m²/s² 0 0 3.86 61
14:00 51 J/kg 1.3 K 0 % 0 % 0 % 0 m²/s² 0 0 1.81 1
15:00 28 J/kg 1.8 K 0 % 0 % 0 % 0 m²/s² 0 0 2.82 1
16:00 28 J/kg 2.4 K 0 % 0 % 0 % 0 m²/s² 0 0 3.3 3
17:00 55 J/kg 0.6 K 0 % 0 % 0 % 0 m²/s² 0 0 1.05 0
18:00 166 J/kg 0.2 K 0 % 0 % 0 % 0 m²/s² 0 0 0.74 0
19:00 406 J/kg -1.7 K 0 % 0 % 0 % 0 m²/s² 0 0 -1.58 1
20:00 569 J/kg -2.1 K 0 % 0 % 0 % 0 m²/s² 0 0 -1.89 3
21:00 539 J/kg -2.0 K 0 % 0 % 0 % 0 m²/s² 0 0 -1.76 3
22:00 609 J/kg -2.1 K 0 % 0 % 0 % 0 m²/s² 0 0 -1.59 1
23:00 688 J/kg -2.7 K 0 % 0 % 0 % 0 m²/s² 0 0 -1.95 0
 06:50     16:39    Daglengte: 9:49 Maandag 25 Nov
00:00 697 J/kg -3.0 K 0 % 0 % 0 % 0 m²/s² 0 0 -2.1 0
01:00 664 J/kg -2.5 K 0 % 0 % 0 % 0 m²/s² 0 0 -0.82 2
02:00 569 J/kg -1.9 K 0 % 0 % 0 % 0 m²/s² 0 0 0.2 3
03:00 651 J/kg -2.7 K 0 % 0 % 0 % 0 m²/s² 0 0 -0.48 3
04:00 858 J/kg -3.9 K 0 % 0 % 0 % 0 m²/s² 0 0 -1.68 0
05:00 839 J/kg -3.7 K 0 % 0 % 0 % 0 m²/s² 0 0 -1.33 1
06:00 793 J/kg -2.8 K 0 % 0 % 0 % 0 m²/s² 0 0 -0.88 0
07:00 605 J/kg -2.0 K 0 % 0 % 0 % 0 m²/s² 0 0 -0.38 3
08:00 699 J/kg -2.8 K 0 % 0 % 0 % 0 m²/s² 0 0 -1.57 3
09:00 683 J/kg -2.7 K 0 % 0 % 0 % 0 m²/s² 0 0 -0.84 0
10:00 658 J/kg -2.4 K 0 % 0 % 0 % 0 m²/s² 0 0 0.66 3
11:00 535 J/kg -2.0 K 0 % 0 % 0 % 0 m²/s² 0 0 2.5 3
12:00 510 J/kg -1.8 K 0 % 0 % 0 % 0 m²/s² 0 0 2.97 3
13:00 513 J/kg -2.3 K 0 % 0 % 0 % 0 m²/s² 0 0 2.11 3
14:00 473 J/kg -1.7 K 0 % 0 % 0 % 0 m²/s² 0 0 1.27 3
15:00 652 J/kg -2.0 K 0 % 0 % 0 % 0 m²/s² 0 0 -0.59 3
16:00 494 J/kg -1.8 K 0 % 0 % 0 % 0 m²/s² 0 0 0.12 3
17:00 464 J/kg -1.5 K 0 % 0 % 0 % 0 m²/s² 0 0 -0.6 3
18:00 506 J/kg -1.5 K 0 % 0 % 0 % 0 m²/s² 0 0 -1.17 2
19:00 472 J/kg -0.9 K 0 % 0 % 0 % 0 m²/s² 0 0 -0.69 2
20:00 238 J/kg -0.2 K 0 % 0 % 0 % 0 m²/s² 0 0 -0.08 3
21:00 11 J/kg -0.5 K 0 % 0 % 0 % 0 m²/s² 0 0 -0.47 2
22:00 480 J/kg -1.4 K 0 % 0 % 0 % 0 m²/s² 0 0 -0.62 2
23:00 485 J/kg -1.0 K 0 % 0 % 0 % 0 m²/s² 0 0 -0.28 2
 06:51     16:39    Daglengte: 9:48 Dinsdag 26 Nov
00:00 560 J/kg -1.3 K 0 % 0 % 0 % 0 m²/s² 0 0 -0.04 2
01:00 556 J/kg -0.9 K 0 % 0 % 0 % 0 m²/s² 0 0 0.48 2
02:00 226 J/kg 0.7 K 0 % 0 % 0 % 0 m²/s² 0 0 2.23
03:00 240 J/kg 0.7 K 0 % 0 % 0 % 0 m²/s² 0 0 2.59
Temp Baro Wind Neerslag
  EWN Forecast EWN WRFDA DWD ICON FMI HIRLAM MET Norway GFS
 06:48     16:40    Daglengte: 9:52 Vandaag
04:00 15.0° 1013.9 hPa 4.6 m/s 0.0 mm 15.0° 1013.3 hPa 6.3 m/s 0.0 mm 14.4° 1014.1 hPa 2.6 m/s -2.0 mm 15.4° 1014.0 hPa 4.7 m/s 0.0 mm 15.8° 1013.5 hPa 5.2 m/s 0.0 mm 14.8° 1014.0 hPa 3.2 m/s
07:00 15.1° 1013.9 hPa 5.0 m/s 0.0 mm 15.4° 1013.2 hPa 7.2 m/s 0.0 mm 14.8° 1014.0 hPa 2.5 m/s 0.0 mm 15.5° 1014.2 hPa 4.8 m/s 0.0 mm 15.7° 1013.7 hPa 5.8 m/s 0.0 mm 14.8° 1013.9 hPa 3.5 m/s
10:00 17.3° 1014.0 hPa 6.1 m/s 0.0 mm 18.1° 1013.3 hPa 8.7 m/s 0.0 mm 17.5° 1014.3 hPa 4.6 m/s 0.0 mm 17.9° 1013.7 hPa 6.0 m/s 0.0 mm 17.4° 1014.0 hPa 6.8 m/s 0.0 mm 17.6° 1013.9 hPa 5.9 m/s
13:00 18.0° 1011.5 hPa 8.3 m/s 0.0 mm 18.7° 1010.3 hPa 11.6 m/s 0.0 mm 18.2° 1011.9 hPa 6.1 m/s 0.0 mm 18.7° 1011.5 hPa 8.2 m/s 0.0 mm 18.0° 1011.3 hPa 9.6 m/s 0.0 mm 18.0° 1011.3 hPa 6.4 m/s
16:00 16.8° 1010.3 hPa 8.4 m/s 0.0 mm 17.1° 1008.6 hPa 11.4 m/s 0.0 mm 16.1° 1010.4 hPa 5.2 m/s 0.0 mm 17.0° 1010.6 hPa 8.6 m/s 0.0 mm 17.2° 1010.1 hPa 9.0 m/s 0.0 mm 17.0° 1010.8 hPa 5.8 m/s
19:00 16.3° 1010.2 hPa 8.9 m/s 0.0 mm 16.6° 1008.0 hPa 11.5 m/s 0.0 mm 15.3° 1010.4 hPa 5.1 m/s 0.0 mm 16.7° 1010.1 hPa 9.2 m/s 0.0 mm 16.6° 1010.2 hPa 10.3 m/s 0.0 mm 16.1° 1010.3 hPa 6.1 m/s
22:00 16.4° 1009.7 hPa 8.5 m/s 0.0 mm 17.0° 1008.6 hPa 11.5 m/s 0.0 mm 15.7° 1009.1 hPa 5.2 m/s 0.0 mm 16.6° 1009.6 hPa 8.9 m/s 0.0 mm 16.5° 1009.8 hPa 8.8 m/s 0.9 mm 16.4° 1010.4 hPa 6.3 m/s
 06:49     16:40    Daglengte: 9:51 Morgen
01:00 16.6° 1007.5 hPa 9.6 m/s 0.0 mm 17.1° 1007.5 hPa 11.2 m/s 0.1 mm 15.7° 1006.7 hPa 8.0 m/s 0.0 mm 16.7° 1008.0 hPa 9.6 m/s 0.0 mm 17.0° 1007.5 hPa 10.6 m/s 0.7 mm 16.2° 1008.8 hPa 7.5 m/s
04:00 16.1° 1005.0 hPa 10.7 m/s 3.8 mm 17.2° 1003.7 hPa 11.9 m/s 0.4 mm 14.3° 1005.0 hPa 7.2 m/s 6.4 mm 17.2° 1005.0 hPa 11.4 m/s 0.0 mm 16.2° 1004.9 hPa 11.5 m/s 3.8 mm 16.2° 1006.0 hPa 9.7 m/s
07:00 15.7° 1003.9 hPa 9.3 m/s 9.1 mm 17.1° 1002.8 hPa 11.4 m/s 18.1 mm 13.7° 1004.4 hPa 6.5 m/s 7.4 mm 17.2° 1003.3 hPa 11.4 m/s 0.0 mm 15.7° 1003.8 hPa 9.4 m/s 11.2 mm 15.1° 1004.7 hPa 7.1 m/s
10:00 15.6° 1002.2 hPa 6.8 m/s 17.0 mm 15.4° 1000.1 hPa 11.5 m/s 78.8 mm 14.4° 1003.1 hPa 3.5 m/s 2.1 mm 16.8° 1002.0 hPa 9.3 m/s 0.0 mm 15.9° 1002.1 hPa 6.6 m/s 12.7 mm 14.5° 1003.0 hPa 4.4 m/s
13:00 14.7° 1000.5 hPa 5.0 m/s 35.9 mm 15.1° 999.0 hPa 8.7 m/s 151.8 mm 14.0° 1000.4 hPa 2.2 m/s 4.3 mm 16.2° 999.9 hPa 4.8 m/s 0.0 mm 14.8° 1000.7 hPa 7.5 m/s 2.5 mm 13.9° 1000.4 hPa 4.7 m/s
16:00 13.4° 1000.1 hPa 3.5 m/s 38.0 mm 13.1° 999.0 hPa 3.0 m/s 162.8 mm 13.6° 1000.4 hPa 0.7 m/s 0.1 mm 14.6° 999.5 hPa 5.1 m/s 0.0 mm 13.6° 1000.0 hPa 3.5 m/s 7.2 mm 13.6° 999.5 hPa 4.6 m/s
19:00 13.2° 1000.9 hPa 3.1 m/s 36.1 mm 14.0° 999.9 hPa 5.6 m/s 166.8 mm 12.3° 1001.6 hPa 1.7 m/s 0.0 mm 13.9° 1000.0 hPa 3.4 m/s 0.0 mm 13.5° 1000.9 hPa 2.4 m/s 3.1 mm 13.5° 999.9 hPa 4.5 m/s
22:00 12.9° 1001.5 hPa 2.7 m/s 40.1 mm 14.5° 1000.5 hPa 6.8 m/s 182.7 mm 11.4° 1001.8 hPa 2.0 m/s 0.0 mm 13.1° 1001.5 hPa 2.0 m/s 3.2 mm 13.5° 1000.5 hPa 3.3 m/s
 06:50     16:39    Daglengte: 9:49 Maandag 25 Nov
01:00 13.1° 1001.5 hPa 3.0 m/s 44.2 mm 14.6° 1000.8 hPa 8.3 m/s 195.3 mm 10.9° 1000.9 hPa 2.3 m/s 0.0 mm 13.5° 1001.5 hPa 1.7 m/s 2.4 mm 13.3° 1000.6 hPa 1.8 m/s
04:00 13.0° 1001.2 hPa 2.7 m/s 27.5 mm 14.7° 1000.4 hPa 7.7 m/s 198.4 mm 10.6° 1001.3 hPa 2.2 m/s 0.0 mm 13.4° 1001.1 hPa 1.6 m/s 0.5 mm 13.3° 1000.0 hPa 3.5 m/s
07:00 13.1° 1001.8 hPa 3.1 m/s 0.0 mm 14.1° 1000.6 hPa 7.5 m/s 203.3 mm 11.1° 1002.1 hPa 1.9 m/s 0.0 mm 13.5° 1001.8 hPa 2.7 m/s 0.5 mm 13.2° 1000.1 hPa 3.3 m/s
10:00 14.1° 1002.8 hPa 2.9 m/s 72.5 mm 14.9° 1001.3 hPa 7.2 m/s 210.8 mm 13.9° 1003.7 hPa 3.2 m/s 0.0 mm 14.0° 1002.8 hPa 1.8 m/s 3.3 mm 14.7° 1000.5 hPa 3.1 m/s
13:00 13.9° 1001.8 hPa 3.1 m/s 65.7 mm 15.2° 1000.7 hPa 8.1 m/s 213.1 mm 13.2° 1003.3 hPa 2.8 m/s 0.3 mm 13.9° 1001.7 hPa 2.3 m/s 6.9 mm 13.9° 999.6 hPa 2.8 m/s
16:00 13.4° 1001.5 hPa 4.2 m/s 56.7 mm 14.6° 1000.0 hPa 8.9 m/s 215.2 mm 12.7° 1004.2 hPa 2.5 m/s 0.4 mm 13.4° 1001.2 hPa 3.9 m/s 8.4 mm 12.7° 999.8 hPa 0.8 m/s
19:00 13.4° 1002.6 hPa 2.9 m/s 81.5 mm 14.4° 1001.6 hPa 13.1 m/s 236.8 mm 12.3° 1005.4 hPa 2.6 m/s 0.1 mm 13.5° 1002.2 hPa 1.1 m/s 3.8 mm 13.6° 1002.0 hPa 4.2 m/s
22:00 13.8° 1003.8 hPa 3.8 m/s 0.0 mm 15.1° 1000.4 hPa 9.0 m/s 275.3 mm 12.2° 1005.9 hPa 3.3 m/s 0.1 mm 14.0° 1003.8 hPa 3.2 m/s 13.7° 1004.2 hPa 3.5 m/s
 06:51     16:39    Daglengte: 9:48 Dinsdag 26 Nov
01:00 14.3° 1005.1 hPa 5.4 m/s 32.1 mm 15.7° 1000.7 hPa 8.4 m/s 290.7 mm 12.7° 1006.3 hPa 3.7 m/s 0.1 mm 14.5° 1005.4 hPa 5.3 m/s 14.1° 1005.9 hPa 2.7 m/s
04:00 14.7° 1006.1 hPa 4.7 m/s 294.6 mm 15.7° 1002.5 hPa 8.5 m/s 294.6 mm 14.5° 1006.8 hPa 4.0 m/s 14.1° 1007.5 hPa 3.3 m/s
07:00 14.7° 1007.6 hPa 3.6 m/s 296.9 mm 16.0° 1004.6 hPa 8.7 m/s 296.9 mm 14.5° 1008.1 hPa 2.8 m/s 14.4° 1009.0 hPa 3.4 m/s
10:00 16.4° 1009.3 hPa 3.7 m/s 62.9 mm 16.3° 1009.2 hPa 3.7 m/s 17.3° 1010.6 hPa 3.3 m/s 62.9 mm
13:00 17.2° 1009.8 hPa 4.2 m/s 63.2 mm 17.2° 1009.7 hPa 4.2 m/s 17.8° 1010.5 hPa 4.6 m/s 63.2 mm
16:00 16.2° 1011.0 hPa 4.2 m/s 63.8 mm 16.2° 1011.0 hPa 4.2 m/s 16.2° 1011.0 hPa 5.0 m/s 63.8 mm
19:00 15.3° 1012.4 hPa 4.1 m/s 64.4 mm 15.3° 1012.4 hPa 4.1 m/s 15.4° 1012.7 hPa 4.7 m/s 64.4 mm
22:00 15.3° 1012.9 hPa 3.8 m/s 64.5 mm 15.3° 1012.8 hPa 3.8 m/s 14.9° 1013.8 hPa 3.8 m/s 64.5 mm
 06:52     16:39    Daglengte: 9:47 Woensdag 27 Nov
01:00 15.3° 1013.3 hPa 3.6 m/s 64.7 mm 15.3° 1013.3 hPa 3.6 m/s 14.8° 1013.6 hPa 3.2 m/s 64.7 mm
04:00 15.1° 1013.6 hPa 3.9 m/s 65.1 mm 15.1° 1013.6 hPa 4.0 m/s 14.7° 1013.5 hPa 3.9 m/s 65.1 mm
07:00 14.9° 1013.9 hPa 4.2 m/s 65.3 mm 14.9° 1013.9 hPa 4.3 m/s 14.6° 1014.0 hPa 3.3 m/s 65.3 mm
10:00 16.3° 1013.8 hPa 2.5 m/s 65.3 mm 16.3° 1013.7 hPa 2.5 m/s 16.9° 1014.8 hPa 2.1 m/s 65.3 mm
13:00 17.7° 1013.5 hPa 0.8 m/s 65.3 mm 17.7° 1013.5 hPa 0.8 m/s 17.4° 1013.5 hPa 1.3 m/s 65.3 mm
16:00 16.2° 1013.4 hPa 1.2 m/s 65.3 mm 16.2° 1013.4 hPa 1.2 m/s 16.3° 1013.5 hPa 0.7 m/s 65.3 mm
19:00 14.8° 1013.4 hPa 1.6 m/s 65.3 mm 14.8° 1013.3 hPa 1.6 m/s 15.2° 1014.1 hPa 1.3 m/s 65.3 mm
22:00 14.9° 1013.4 hPa 1.7 m/s 65.3 mm 14.9° 1013.3 hPa 1.8 m/s 15.1° 1014.5 hPa 1.7 m/s 65.3 mm
 06:53     16:38    Daglengte: 9:45 Donderdag 28 Nov
01:00 15.0° 1013.4 hPa 1.9 m/s 65.3 mm 15.0° 1013.3 hPa 1.9 m/s 15.2° 1014.3 hPa 1.7 m/s 65.3 mm
04:00 15.4° 1013.2 hPa 2.0 m/s 65.3 mm 15.4° 1013.1 hPa 2.1 m/s 15.3° 1013.5 hPa 1.0 m/s 65.3 mm
07:00 15.9° 1013.1 hPa 2.2 m/s 65.3 mm 15.9° 1013.0 hPa 2.3 m/s 15.5° 1013.9 hPa 0.7 m/s 65.3 mm
10:00 17.4° 1013.0 hPa 1.8 m/s 65.3 mm 17.3° 1012.9 hPa 1.9 m/s 18.7° 1014.7 hPa 0.8 m/s 65.3 mm
13:00 18.8° 1012.8 hPa 1.5 m/s 65.3 mm 18.7° 1012.8 hPa 1.5 m/s 19.6° 1013.4 hPa 1.4 m/s 65.3 mm
16:00 18.0° 1013.4 hPa 2.8 m/s 65.3 mm 17.9° 1013.4 hPa 2.9 m/s 18.0° 1012.9 hPa 1.2 m/s 65.3 mm
19:00 17.2° 1014.0 hPa 4.1 m/s 65.3 mm 17.2° 1014.0 hPa 4.3 m/s 16.9° 1013.5 hPa 1.3 m/s 65.3 mm
22:00 16.8° 1014.2 hPa 3.8 m/s 65.3 mm 16.9° 1014.2 hPa 4.0 m/s 16.7° 1014.0 hPa 1.4 m/s 65.3 mm
 06:54     16:38    Daglengte: 9:44 Vrijdag 29 Nov
01:00 16.5° 1014.4 hPa 3.5 m/s 65.3 mm 16.5° 1014.4 hPa 3.7 m/s 16.4° 1013.9 hPa 1.6 m/s 65.3 mm
04:00 15.8° 1014.9 hPa 3.9 m/s 65.3 mm 15.8° 1015.0 hPa 3.8 m/s 16.1° 1014.0 hPa 4.9 m/s 65.3 mm
07:00 15.1° 1015.5 hPa 4.0 m/s 65.6 mm 15.1° 1015.5 hPa 3.9 m/s 15.5° 1015.2 hPa 4.5 m/s 65.6 mm
10:00 15.5° 1016.2 hPa 4.4 m/s 65.8 mm 15.4° 1016.1 hPa 4.4 m/s 16.5° 1016.6 hPa 3.9 m/s 65.8 mm
13:00 15.8° 1016.7 hPa 4.9 m/s 65.8 mm 15.7° 1016.8 hPa 4.9 m/s 17.1° 1016.0 hPa 4.9 m/s 65.8 mm
16:00 15.5° 1017.7 hPa 4.4 m/s 65.8 mm 15.5° 1017.8 hPa 4.5 m/s 15.7° 1016.1 hPa 3.5 m/s 65.8 mm
19:00 15.2° 1018.6 hPa 4.0 m/s 65.8 mm 15.3° 1018.8 hPa 4.0 m/s 14.6° 1016.9 hPa 3.9 m/s 65.8 mm
22:00 15.3° 1019.3 hPa 4.0 m/s 65.8 mm 15.4° 1019.4 hPa 4.0 m/s 14.4° 1018.4 hPa 3.9 m/s 65.8 mm
 06:55     16:38    Daglengte: 9:43 Zaterdag 30 Nov
01:00 15.3° 1019.9 hPa 4.1 m/s 65.8 mm 15.4° 1020.0 hPa 4.1 m/s 14.6° 1018.3 hPa 3.8 m/s 65.8 mm
07:00 14.9° 1020.2 hPa 4.0 m/s 65.8 mm 15.0° 1020.4 hPa 4.2 m/s 14.1° 1018.1 hPa 1.6 m/s 65.8 mm
13:00 16.8° 1019.9 hPa 3.3 m/s 65.8 mm 16.7° 1020.2 hPa 3.5 m/s 17.4° 1017.2 hPa 1.6 m/s 65.8 mm
19:00 15.3° 1019.6 hPa 2.6 m/s 65.8 mm 15.3° 1019.9 hPa 2.8 m/s 15.4° 1016.4 hPa 0.4 m/s 65.8 mm
 06:56     16:37    Daglengte: 9:41 Zondag 01 Dec
01:00 15.7° 1018.2 hPa 4.4 m/s 65.8 mm 15.7° 1018.5 hPa 4.7 m/s 15.2° 1014.8 hPa 0.7 m/s 65.8 mm
07:00 15.2° 1017.9 hPa 7.7 m/s 65.8 mm 15.2° 1018.3 hPa 8.3 m/s 14.6° 1012.9 hPa 1.6 m/s 65.8 mm
13:00 17.0° 1016.6 hPa 9.2 m/s 65.8 mm 16.9° 1017.1 hPa 9.5 m/s 17.7° 1010.5 hPa 5.6 m/s 65.8 mm
19:00 16.9° 1016.5 hPa 8.2 m/s 66.2 mm 17.0° 1017.2 hPa 8.6 m/s 16.2° 1009.0 hPa 4.3 m/s 66.2 mm
 06:57     16:37    Daglengte: 9:40 Maandag 02 Dec
01:00 16.6° 1016.6 hPa 8.2 m/s 66.3 mm 16.7° 1017.4 hPa 8.6 m/s 15.3° 1008.1 hPa 3.5 m/s 66.3 mm
07:00 16.2° 1017.1 hPa 5.6 m/s 66.3 mm 16.4° 1018.0 hPa 5.9 m/s 14.5° 1006.8 hPa 2.7 m/s 66.3 mm
13:00 18.0° 1017.6 hPa 5.8 m/s 66.3 mm 18.1° 1018.6 hPa 6.2 m/s 17.0° 1007.1 hPa 1.6 m/s 66.3 mm
19:00 14.2° 1009.8 hPa 4.0 m/s 66.6 mm 14.2° 1009.8 hPa 4.0 m/s 66.6 mm
 06:58     16:37    Daglengte: 9:39 Dinsdag 03 Dec
01:00 14.3° 1015.8 hPa 0.4 m/s 0.8 mm
07:00 13.8° 1015.8 hPa 0.8 m/s 0.4 mm
13:00 16.1° 1015.5 hPa 1.0 m/s 2.0 mm
19:00 14.2° 1015.9 hPa 1.5 m/s 1.4 mm
 06:59     16:37    Daglengte: 9:38 Woensdag 04 Dec
01:00 13.4° 1015.8 hPa 1.5 m/s 1.2 mm
07:00 12.9° 1015.2 hPa 1.5 m/s 0.4 mm
13:00 15.8° 1014.7 hPa 1.6 m/s 1.0 mm
19:00 13.7° 1015.1 hPa 1.7 m/s 0.8 mm
 07:00     16:37    Daglengte: 9:37 Donderdag 05 Dec
01:00 13.1° 1015.2 hPa 1.0 m/s 0.3 mm
07:00 12.7° 1015.1 hPa 0.9 m/s 0.6 mm
13:00 15.8° 1014.7 hPa 1.5 m/s 0.5 mm
19:00 13.6° 1015.0 hPa 1.2 m/s 0.8 mm
 07:00     16:37    Daglengte: 9:37 Vrijdag 06 Dec
01:00 13.1° 1015.0 hPa 0.9 m/s 1.1 mm
07:00 12.9° 1015.0 hPa 0.7 m/s 0.9 mm
13:00 16.4° 1014.5 hPa 1.2 m/s 0.4 mm
19:00 14.0° 1015.1 hPa 1.2 m/s 0.3 mm
 07:01     16:37    Daglengte: 9:36 Zaterdag 07 Dec
01:00 13.2° 1015.5 hPa 2.2 m/s 0.5 mm
07:00 12.8° 1015.5 hPa 2.2 m/s 0.4 mm
13:00 16.1° 1015.3 hPa 2.6 m/s 0.7 mm
19:00 13.6° 1016.3 hPa 2.2 m/s 0.2 mm
 07:02     16:37    Daglengte: 9:35 Zondag 08 Dec
01:00 12.9° 1016.5 hPa 2.0 m/s 0.2 mm
FMI Hirlam - 7.5 km EWN WRFDA - 12 km DWD ICON - 7 km GFS - 25 km Basiskaart






























































Updatetijd (Europe/Amsterdam) Resolutie Lengte Stap
FMI Hirlam 00:15, 06:15, 12:15, 18:15 7.5 km 49h 1h
EWN WRFDA 02:45, 08:45, 14:45, 20:45 12 km 73h 1h
DWD ICON 22:45, 04:45, 10:45, 16:45 7 km 75h 1h
GFS 01:30, 07:30, 13:30, 19:30 25 km 237h 3h
30+ mm
25-30 mm
20-25 mm
15-20 mm
10-15 mm
6-10 mm
4-6 mm
2-4 mm
1-2 mm
0.5-1 mm
0.2-0.5 mm
0.1-0.2 mm
30+ mm
25-30 mm
20-25 mm
15-20 mm
10-15 mm
6-10 mm
4-6 mm
2-4 mm
1-2 mm
0.5-1 mm
0.2-0.5 mm
0.1-0.2 mm
Sneeuwval
Natte sneeuw
Hagel
Vorst
30+ mm
25-30 mm
20-25 mm
15-20 mm
10-15 mm
6-10 mm
4-6 mm
2-4 mm
1-2 mm
0.5-1 mm
0.2-0.5 mm
0.1-0.2 mm
Sneeuwval
Natte sneeuw
Hagel
Vorst
Onweer
50 mm
40 mm
30 mm
26 mm
22 mm
18 mm
14 mm
10 mm
9 mm
8 mm
7 mm
6 mm
5 mm
4.5 mm
4 mm
3.5 mm
3 mm
2.5 mm
2 mm
1.5 mm
1 mm
0.8 mm
0.6 mm
0.4 mm
0.2 mm
0.05 mm
35°
30°
25°
20°
15°
10°
-5°
-10°
-15°
-20°
-25°
-30°
-35°
33> m/s
29 m/s
25 m/s
21 m/s
17 m/s
14 m/s
11 m/s
8 m/s
5 m/s
3 m/s
0 m/s
2600 J/kg
2400 J/kg